{"data":{"norad_id":55358,"epoch":"2026-05-24T12:39:53.851104Z","epoch_age_seconds":132664,"freshness":"FRESH","line1":"1 55358U 23013AD  26144.52770661  .00000070  00000+0  12075-4 0  9991","line2":"2 55358  43.0029 234.9573 0001447 268.5270  91.5416 15.27574850183276","mean_motion":15.2757485,"eccentricity":0.0001447,"inclination_deg":43.0029,"raan_deg":234.9573,"arg_perigee_deg":268.527,"mean_anomaly_deg":91.5416,"bstar":1.2075e-5,"rev_number":18327,"period_min":94.267066520505,"perigee_km":482.07170117617,"apogee_km":484.0573328952,"semimajor_km":6861.2015170357,"source":"CELESTRAK","updated_at":"2026-05-25T13:38:17.765211Z"}}